INTELSAT 20 (IS-20) (38740 NORAD) Tracking and Keplerian Element Data

This shows tracking and keplerian element data for the satellite.

Feedback or suggestion? Click here.




ElementValue
Catalog38740
NameINTELSAT 20 (IS-20)
Epoch Orbit3711
Epoch Day269.6842364
Epoch Year2022
RAAN178.7146
Inclination0.0111
Eccentricity0.0002125
Argument of Perigee359.0288
Mean Anonmoly142.5504
Mean Motion1.00272399
Decay Rate-2.2E-07
L11 38740U 12043A 22269.68423640 -.00000022 00000+0 00000+0 0 9999
L22 38740 0.0111 178.7146 0002125 359.0288 142.5504 1.00272399 37112

Live tracking and technical data element details for INTELSAT 20 (IS-20) (NORAD 38740). INTELSAT 20 (IS-20) can be tracked NOW for your location showing map with azimuth and elevation plus other details from your city location.

Track the satellite on the map from your city or location and see movement details for azimuth, elevation, latitude, longitude, range, height, and movement on the map or in text.







IsCatalogInMostPopularTable: catalog: 38740, numindb: 663
Update: records affected: 1



GetName: 38740 INTELSAT 20 (IS-20)

Hit Count: updated at: Wed, 28 Sep 2022 22:27:14 GMT